BER8626 EDDT-LOWS

Flight info

Callsign BER8626
Flight time N/A
Altitude 36000
Route BRANE3V BRANE DCT ABERU/N0445F350 DCT TIPAM DCT ARMUT DCT NETES DCT STAUB DCT OSTES DCT DEGIN DCT BIBAG DCT BADIT BADIT2R
Aircraft B738/M-SDE2E3FGHIRWXY/LB1

Departure

Time N/A
Airport EDDT

Arrival

Time 2026-04-29 13:56
Airport Salzburg Airport (LOWS)
Time Latitude Longitude Altitude Speed Heading
2026-04-29 12:21 52.55647 13.29615 108 ft 0 kts 171°
2026-04-29 12:23 52.55647 13.29616 108 ft 0 kts 171°
2026-04-29 12:54 52.55653 13.29614 108 ft 2 kts 171°
2026-04-29 12:54 52.55668 13.29610 107 ft 2 kts 171°
2026-04-29 12:54 52.55683 13.29607 107 ft 2 kts 171°
2026-04-29 12:55 52.55698 13.29610 107 ft 2 kts 215°
2026-04-29 12:55 52.55707 13.29628 106 ft 1 kts 253°
2026-04-29 12:55 52.55708 13.29634 106 ft 0 kts 262°
2026-04-29 12:55 52.55704 13.29605 107 ft 1 kts 260°
2026-04-29 12:56 52.55704 13.29602 107 ft 0 kts 260°
2026-04-29 12:58 52.55703 13.29598 107 ft 2 kts 260°
2026-04-29 12:58 52.55691 13.29476 110 ft 11 kts 260°
2026-04-29 12:58 52.55678 13.29346 110 ft 12 kts 260°
2026-04-29 12:58 52.55662 13.29187 112 ft 15 kts 261°
2026-04-29 12:59 52.55644 13.28994 113 ft 17 kts 261°
2026-04-29 12:59 52.55626 13.28806 112 ft 17 kts 260°
2026-04-29 12:59 52.55606 13.28607 111 ft 17 kts 261°
2026-04-29 12:59 52.55587 13.28414 110 ft 17 kts 261°
2026-04-29 13:00 52.55570 13.28223 108 ft 16 kts 261°
2026-04-29 13:00 52.55553 13.28034 107 ft 17 kts 260°
2026-04-29 13:00 52.55532 13.27840 104 ft 18 kts 260°
2026-04-29 13:00 52.55520 13.27685 103 ft 12 kts 274°
2026-04-29 13:01 52.55554 13.27585 103 ft 4 kts 316°
2026-04-29 13:01 52.55559 13.27577 103 ft 0 kts 318°
2026-04-29 13:03 52.55560 13.27576 103 ft 1 kts 318°
2026-04-29 13:03 52.55591 13.27542 103 ft 6 kts 336°
2026-04-29 13:04 52.55631 13.27522 103 ft 6 kts 347°
2026-04-29 13:04 52.55675 13.27565 103 ft 9 kts 84°
2026-04-29 13:04 52.55687 13.27696 104 ft 21 kts 80°
2026-04-29 13:04 52.55743 13.28221 109 ft 80 kts 81°
2026-04-29 13:05 52.55865 13.29514 107 ft 148 kts 79°
2026-04-29 13:05 52.56043 13.31399 564 ft 173 kts 81°
2026-04-29 13:05 52.56144 13.33243 1661 ft 164 kts 84°
2026-04-29 13:05 52.56261 13.35146 2380 ft 177 kts 77°
2026-04-29 13:06 52.56553 13.37137 3036 ft 196 kts 72°
2026-04-29 13:06 52.56953 13.39478 3471 ft 229 kts 75°
2026-04-29 13:06 52.57270 13.42245 4048 ft 258 kts 80°
2026-04-29 13:06 52.57441 13.45052 5303 ft 247 kts 83°
2026-04-29 13:07 52.57535 13.47870 6096 ft 255 kts 85°
2026-04-29 13:07 52.57572 13.50806 6827 ft 264 kts 86°
2026-04-29 13:07 52.57592 13.53741 7940 ft 256 kts 84°
2026-04-29 13:07 52.57664 13.56669 8628 ft 265 kts 82°
2026-04-29 13:08 52.57783 13.59738 9342 ft 271 kts 81°
2026-04-29 13:08 52.57918 13.62762 10371 ft 265 kts 79°
2026-04-29 13:08 52.58073 13.65755 11081 ft 270 kts 79°
2026-04-29 13:08 52.58254 13.68890 11703 ft 279 kts 78°
2026-04-29 13:09 52.58478 13.72014 12358 ft 285 kts 76°
2026-04-29 13:09 52.58751 13.75310 12769 ft 300 kts 77°
2026-04-29 13:09 52.59008 13.78805 13159 ft 316 kts 78°
2026-04-29 13:09 52.59232 13.82458 13546 ft 331 kts 79°
2026-04-29 13:10 52.59389 13.86314 13912 ft 349 kts 84°
2026-04-29 13:10 52.59100 13.90440 14269 ft 373 kts 98°
2026-04-29 13:10 52.58169 13.94443 14909 ft 387 kts 111°
2026-04-29 13:10 52.56706 13.98243 15562 ft 399 kts 122°
2026-04-29 13:11 52.54739 14.01504 16227 ft 413 kts 137°
2026-04-29 13:11 52.52226 14.03886 16832 ft 427 kts 154°
2026-04-29 13:11 52.49357 14.05174 17461 ft 436 kts 166°
2026-04-29 13:11 52.46355 14.05960 18070 ft 441 kts 169°
2026-04-29 13:12 52.43290 14.06617 18660 ft 447 kts 170°
2026-04-29 13:12 52.40218 14.07220 19272 ft 451 kts 170°
2026-04-29 13:12 52.37090 14.07818 19875 ft 455 kts 170°
2026-04-29 13:12 52.33955 14.08426 20440 ft 459 kts 170°
2026-04-29 13:13 52.30792 14.09052 21052 ft 462 kts 169°
2026-04-29 13:13 52.27578 14.09702 21560 ft 467 kts 169°
2026-04-29 13:13 52.24343 14.10363 22171 ft 469 kts 169°
2026-04-29 13:13 52.21124 14.11026 22642 ft 475 kts 169°
2026-04-29 13:14 52.17839 14.11704 23196 ft 477 kts 169°
2026-04-29 13:14 52.14550 14.12381 23685 ft 482 kts 169°
2026-04-29 13:14 52.11225 14.13066 24267 ft 483 kts 169°
2026-04-29 13:14 52.07856 14.13760 24674 ft 489 kts 169°
2026-04-29 13:15 52.04527 14.14442 25285 ft 490 kts 169°
2026-04-29 13:15 52.01138 14.15138 25665 ft 496 kts 169°
2026-04-29 13:15 51.97720 14.15839 26225 ft 497 kts 168°
2026-04-29 13:15 51.94263 14.16473 26796 ft 498 kts 172°
2026-04-29 13:16 51.90797 14.16607 27379 ft 501 kts 179°
2026-04-29 13:16 51.87342 14.15961 27990 ft 502 kts 189°
2026-04-29 13:16 51.83995 14.14564 28365 ft 506 kts 197°
2026-04-29 13:17 51.77531 14.10259 28416 ft 500 kts 205°
2026-04-29 13:17 51.71310 14.05424 28416 ft 499 kts 205°
2026-04-29 13:18 51.65037 14.00657 28405 ft 496 kts 205°
2026-04-29 13:18 51.58732 13.96084 28394 ft 497 kts 204°
2026-04-29 13:19 51.52436 13.91681 28394 ft 496 kts 204°
2026-04-29 13:19 51.46075 13.87569 28385 ft 497 kts 198°
2026-04-29 13:20 51.39312 13.84744 28381 ft 509 kts 191°
2026-04-29 13:20 51.32356 13.82759 28382 ft 508 kts 188°
2026-04-29 13:21 51.25375 13.80968 28382 ft 506 kts 188°
2026-04-29 13:21 51.18451 13.79137 28383 ft 506 kts 189°
2026-04-29 13:22 51.11525 13.77225 28384 ft 506 kts 189°
2026-04-29 13:22 51.04631 13.75277 28380 ft 505 kts 189°
2026-04-29 13:23 50.97744 13.73319 28375 ft 503 kts 189°
2026-04-29 13:23 50.90878 13.71364 28357 ft 502 kts 189°
2026-04-29 13:24 50.84062 13.68937 28328 ft 502 kts 195°
2026-04-29 13:24 50.77372 13.65894 28316 ft 501 kts 197°
2026-04-29 13:25 50.70719 13.62734 28312 ft 500 kts 197°
2026-04-29 13:25 50.60845 13.57756 28322 ft 497 kts 199°
2026-04-29 13:26 50.54272 13.54380 28330 ft 497 kts 199°
2026-04-29 13:26 50.47733 13.51067 28344 ft 497 kts 199°
2026-04-29 13:27 50.41170 13.47787 28336 ft 495 kts 199°
2026-04-29 13:27 50.34617 13.44541 28331 ft 494 kts 199°
2026-04-29 13:28 50.28091 13.41328 28325 ft 493 kts 199°
2026-04-29 13:28 50.21567 13.38126 28320 ft 492 kts 199°
2026-04-29 13:29 50.15067 13.34944 28317 ft 491 kts 198°
2026-04-29 13:29 50.08533 13.31755 28311 ft 489 kts 198°
2026-04-29 13:30 50.02068 13.28609 28313 ft 490 kts 198°
2026-04-29 13:30 49.95576 13.25460 28303 ft 487 kts 198°
2026-04-29 13:31 49.89127 13.22339 28298 ft 487 kts 198°
2026-04-29 13:31 49.82676 13.19224 28293 ft 487 kts 198°
2026-04-29 13:32 49.76267 13.16139 28286 ft 484 kts 199°
2026-04-29 13:32 49.69840 13.13055 28279 ft 484 kts 199°
2026-04-29 13:33 49.63380 13.09963 28270 ft 485 kts 199°
2026-04-29 13:33 49.56976 13.06907 28264 ft 484 kts 199°
2026-04-29 13:34 49.50555 13.03850 28261 ft 484 kts 199°
2026-04-29 13:34 49.44169 13.00811 28247 ft 481 kts 200°
2026-04-29 13:35 49.37922 12.97205 28250 ft 480 kts 206°
2026-04-29 13:35 49.31913 12.92875 28243 ft 476 kts 209°
2026-04-29 13:36 49.25993 12.88411 28230 ft 474 kts 209°
2026-04-29 13:36 49.20070 12.83984 28227 ft 474 kts 209°
2026-04-29 13:37 49.14127 12.79602 28228 ft 474 kts 209°
2026-04-29 13:37 49.08158 12.75253 28034 ft 476 kts 208°
2026-04-29 13:38 49.05178 12.73095 27488 ft 474 kts 208°
2026-04-29 13:38 49.02231 12.70970 26912 ft 471 kts 208°
2026-04-29 13:38 48.99269 12.68841 26332 ft 470 kts 208°
2026-04-29 13:38 48.96299 12.66719 25754 ft 473 kts 207°
2026-04-29 13:39 48.93241 12.64833 25163 ft 475 kts 201°
2026-04-29 13:39 48.90028 12.63559 24561 ft 474 kts 192°
2026-04-29 13:39 48.86779 12.63054 23973 ft 470 kts 183°
2026-04-29 13:39 48.83547 12.63288 23355 ft 466 kts 175°
2026-04-29 13:40 48.80388 12.64038 22695 ft 462 kts 170°
2026-04-29 13:40 48.77252 12.65038 22024 ft 458 kts 168°
2026-04-29 13:40 48.74170 12.66105 21365 ft 454 kts 168°
2026-04-29 13:40 48.71102 12.67160 20707 ft 449 kts 168°
2026-04-29 13:41 48.68071 12.68157 20056 ft 445 kts 169°
2026-04-29 13:41 48.65081 12.69086 19413 ft 441 kts 169°
2026-04-29 13:41 48.62094 12.69965 18769 ft 436 kts 170°
2026-04-29 13:41 48.59141 12.70794 18129 ft 432 kts 171°
2026-04-29 13:42 48.56207 12.71529 17497 ft 428 kts 172°
2026-04-29 13:42 48.53258 12.72190 16807 ft 425 kts 173°
2026-04-29 13:42 48.50341 12.72802 16099 ft 422 kts 173°
2026-04-29 13:42 48.47465 12.73391 15390 ft 419 kts 173°
2026-04-29 13:43 48.44606 12.73975 14682 ft 416 kts 173°
2026-04-29 13:43 48.41748 12.74564 13971 ft 413 kts 173°
2026-04-29 13:43 48.38943 12.75177 13267 ft 409 kts 171°
2026-04-29 13:43 48.36158 12.76000 12558 ft 406 kts 167°
2026-04-29 13:44 48.33448 12.76973 11816 ft 396 kts 166°
2026-04-29 13:44 48.30836 12.77986 11126 ft 379 kts 165°
2026-04-29 13:44 48.28355 12.78967 10431 ft 366 kts 165°
2026-04-29 13:44 48.25953 12.79904 9732 ft 354 kts 165°
2026-04-29 13:45 48.23616 12.80793 9195 ft 339 kts 165°
2026-04-29 13:45 48.21417 12.81611 8930 ft 317 kts 165°
2026-04-29 13:45 48.19328 12.82375 8678 ft 299 kts 165°
2026-04-29 13:45 48.17363 12.83087 8309 ft 287 kts 165°
2026-04-29 13:46 48.15442 12.83782 7815 ft 282 kts 164°
2026-04-29 13:46 48.13547 12.84468 7314 ft 278 kts 164°
2026-04-29 13:46 48.11695 12.85138 6817 ft 275 kts 163°
2026-04-29 13:46 48.09860 12.85801 6319 ft 272 kts 163°
2026-04-29 13:47 48.08027 12.86463 5844 ft 268 kts 163°
2026-04-29 13:47 48.06247 12.87106 5415 ft 263 kts 162°
2026-04-29 13:47 48.04478 12.87743 5083 ft 260 kts 162°
2026-04-29 13:47 48.02728 12.88362 4794 ft 257 kts 163°
2026-04-29 13:48 48.01011 12.88925 4495 ft 255 kts 164°
2026-04-29 13:48 47.99273 12.89381 4147 ft 256 kts 169°
2026-04-29 13:48 47.97519 12.89609 3962 ft 248 kts 171°
2026-04-29 13:48 47.95865 12.89955 3922 ft 231 kts 161°
2026-04-29 13:49 47.94422 12.90716 3977 ft 208 kts 149°
2026-04-29 13:49 47.93216 12.91666 4034 ft 188 kts 146°
2026-04-29 13:49 47.92063 12.92522 3866 ft 186 kts 153°
2026-04-29 13:49 47.90866 12.93179 3700 ft 177 kts 156°
2026-04-29 13:50 47.89741 12.93759 3385 ft 169 kts 153°
2026-04-29 13:50 47.88681 12.94419 3050 ft 162 kts 149°
2026-04-29 13:50 47.87650 12.95152 2743 ft 163 kts 149°
2026-04-29 13:50 47.86675 12.95809 2727 ft 154 kts 151°
2026-04-29 13:51 47.85680 12.96403 2562 ft 153 kts 155°
2026-04-29 13:51 47.84681 12.96962 2421 ft 151 kts 153°
2026-04-29 13:51 47.83700 12.97633 2191 ft 158 kts 150°
2026-04-29 13:51 47.82732 12.98281 2013 ft 153 kts 154°
2026-04-29 13:52 47.81723 12.98956 1995 ft 160 kts 146°
2026-04-29 13:52 47.80870 12.99933 2184 ft 150 kts 129°
2026-04-29 13:52 47.80191 13.01130 2218 ft 155 kts 124°
2026-04-29 13:52 47.79519 13.02348 2303 ft 151 kts 126°
2026-04-29 13:53 47.78805 13.03544 2328 ft 154 kts 128°
2026-04-29 13:53 47.78075 13.04720 2269 ft 153 kts 127°
2026-04-29 13:53 47.77357 13.05889 2245 ft 151 kts 135°
2026-04-29 13:53 47.76389 13.06499 2229 ft 158 kts 172°
2026-04-29 13:54 47.75308 13.06171 2231 ft 162 kts 208°
2026-04-29 13:54 47.74641 13.04911 2255 ft 157 kts 261°
2026-04-29 13:54 47.74813 13.03369 2168 ft 154 kts 309°
2026-04-29 13:54 47.75644 13.02539 2110 ft 145 kts 345°
2026-04-29 13:55 47.76611 13.02084 1857 ft 142 kts 345°
2026-04-29 13:55 47.77529 13.01499 1655 ft 143 kts 339°
2026-04-29 13:55 47.78447 13.00961 1434 ft 139 kts 339°
2026-04-29 13:55 47.79227 13.00466 1409 ft 93 kts 336°
2026-04-29 13:56 47.79636 13.00209 1407 ft 44 kts 338°
2026-04-29 13:56 47.79913 13.00032 1404 ft 42 kts 336°
2026-04-29 13:56 47.80175 12.99862 1408 ft 37 kts 337°
2026-04-29 13:56 47.80284 12.99734 1411 ft 15 kts 281°
2026-04-29 13:57 47.80250 12.99612 1412 ft 12 kts 227°
2026-04-29 13:57 47.80174 12.99596 1413 ft 13 kts 158°
2026-04-29 13:57 47.80079 12.99652 1413 ft 15 kts 157°
2026-04-29 13:57 47.79998 12.99704 1413 ft 20 kts 156°
2026-04-29 13:58 47.79829 12.99814 1413 ft 19 kts 157°
2026-04-29 13:58 47.79714 12.99887 1414 ft 17 kts 157°
2026-04-29 13:58 47.79607 12.99955 1413 ft 16 kts 157°
2026-04-29 13:58 47.79499 13.00022 1412 ft 16 kts 157°
2026-04-29 13:59 47.79396 13.00086 1412 ft 15 kts 167°
2026-04-29 13:59 47.79340 13.00008 1415 ft 9 kts 247°
2026-04-29 13:59 47.79315 12.99947 1419 ft 8 kts 211°
2026-04-29 13:59 47.79234 12.99976 1417 ft 14 kts 158°
2026-04-29 14:00 47.79188 12.99995 1416 ft 3 kts 207°
2026-04-29 14:00 47.79185 12.99981 1417 ft 2 kts 279°
2026-04-29 14:00 47.79190 12.99940 1420 ft 3 kts 283°
2026-04-29 14:00 47.79194 12.99923 1421 ft 0 kts 284°
2026-04-29 14:01 47.79198 12.99894 1423 ft 0 kts 282°
2026-04-29 14:01 47.79198 12.99893 1423 ft 0 kts 282°